Showing default

KINEIS-4B, 63304

Orbit data source: Space-Track

KINEIS-4B, 63304 is a French payload satellite in SSO that was launched on Tue, 18 Mar 2025 UTC via an ELECTRON launch vehicle from the Rocket Lab Launch Complex (RLLC). Payload-class satellites include a variety of spacecraft equipped with specific instruments for various scientific and technological missions. These include communications satellites like Starlink; space stations such as the ISS; scientific satellites like the Hubble; Earth observation satellites from companies like Planet Labs, Umbra, and HawkEye 360; GPS; miniature CubeSats for education and research; and military/defense satellites.

Loading next visibility...
Identifier
63304, 2025-056E
Orbit
SSO
Last TLE update
1 day ago
Origin
Manufacturer
KINEIS
Mission
Operational spacecraft
Bus & Motor
CUBESAT 16U, Unknown motor
Mass
28 kg wet, 28 kg dry
Launch date (UTC)
2025-03-18 (1 month ago)
Launch vehicle
ELECTRON
Launch site
Rocket Lab Launch Complex (RLLC)
Object type
Payload
Rocket body
Debris
Shape & HBR
Unknown
Radar Cross Section
Medium (>0.1 m² and <1 m²)

Expand to show TLE details & history

TLE from 1 day ago
0 KINEIS-4B
1 63304U 25056E   25119.13813622  .00004419  00000-0  67448-3 0  9998
2 63304  97.9757 245.8202 0003821 137.7624 222.3879 14.74324156  6195
Epoch: 2025-04-29T03:18Z
Definitive object data (Epoch: 2025-04-29T03:18:54.969Z)
Latitude
-0.00007°
Longitude
-21.25094°
Altitude
652.293 km
Speed
7.53 km/s
True Right ascension
16h 23m 16s
True Declination
0° 00' 00"
Sunlit
Object was in full shadow at TLE epoch
Visualization TLE readout
Latitude
38.8381°
Longitude
-26.41644°
Altitude
652.953 km
Speed
7.535 km/s
Apparent Right ascension
11h 49m 53s
Apparent Declination
6° 41' 55"
Sunlit
Object is in full shadow
Visualization observer readout
Local Sidereal Time
18:00:25
Azimuth
276.825° WNW
Elevation
2.284°
Doppler factor
1
Orbital elements
Apogee altitude
647.033 km
Perigee altitude
641.666 km
Semi-major axis
7,022.486 km
Eccentricity
0.0003821
Inclination
97.9757°
RAAN
245.8202°
Arg. of periapsis
137.7624°
True anomaly
222.35839°
Mean anomaly
222.3879°
Eccentric anomaly
222.37315°
Mean motion
3.68814 °/min
BSTAR
0.00067448
Orbital period
97.61 mins
Loading maneuver chart data...
Loading SW <> Apogee altitude chart data...
Loading historical data...
Loading historical data...
Loading historical data...
Loading historical data...
Loading historical data...
Loading historical data...
Loading historical data...

KINEIS-4B Visibility forecast

Observer location: undefined°, undefined°

Span
Click to sort rows by Start time (UTC) header in descending order
Start Az.
Max El. time (UTC)
Max El. Az.
Max El.
End time (UTC)
End Az.
6 mins2025-04-30 20:37:24.685Z40.96° NE2025-04-30 20:40:24.685Z96.902° ESE27.551°2025-04-30 20:43:24.685Z152.819° SSE
4 mins2025-04-30 22:15:24.685Z320.516° NNW2025-04-30 22:16:24.685Z302.079° NW20.97°2025-04-30 22:19:24.685Z249.727° W
6 mins2025-05-01 07:35:24.685Z115.013° SE2025-05-01 07:38:24.685Z58.869° ENE23.65°2025-05-01 07:41:24.685Z14.287° NNE
5 mins2025-05-01 09:12:24.685Z222.148° SW2025-05-01 09:14:24.685Z261.019° W24.53°2025-05-01 09:17:24.685Z314.823° NW
|